[Iaude] MPEC F118: 2024 FP3 [a=1.28,e=0.26,i=1.8,H=26.1]
    mpec at cfa.harvard.edu 
    mpec at cfa.harvard.edu
       
    Sun Mar 31 13:47:39 EDT 2024
    
    
  
M.P.E.C. 2024-F118                               Issued 2024 March 31, 17:46 UT
     The Minor Planet Electronic Circulars contain information on unusual
         minor planets, routine data on comets and natural satellites,
         and occasional editorial announcements.  They are published
    on behalf of Division F of the International Astronomical Union by the
          Minor Planet Center, Smithsonian Astrophysical Observatory,
                          Cambridge, MA 02138, U.S.A.
			  
             Prepared using the Tamkin Foundation Computer Network
                              MPC at CFA.HARVARD.EDU
            URL https://www.minorplanetcenter.net/    ISSN 1523-6714
                                    2024 FP3                                    
Observations:
     K24F03P* C2024 03 30.33516311 59 13.016-14 10 13.41         20.63wXEF118F51
     K24F03P  C2024 03 30.34687711 59 13.035-14 10 33.78         20.48wXEF118F51
     K24F03P  C2024 03 30.35862011 59 13.032-14 10 54.03         20.71wXEF118F51
     K24F03P  C2024 03 30.37028811 59 13.006-14 11 14.24         20.90wXEF118F51
     K24F03P  C2024 03 30.47826911 59 12.635-14 14 11.53         20.39GVEF118F51
     K24F03P  C2024 03 30.47908611 59 12.635-14 14 12.91         20.44GVEF118F51
     K24F03P |C2024 03 31.21759012 00 03.110-14 33 24.20         20.0 GVEF118807
     K24F03P |C2024 03 31.22038012 00 03.120-14 33 29.00         20.1 GVEF118807
     K24F03P |C2024 03 31.22316212 00 03.130-14 33 33.30         20.3 GVEF118807
     K24F03P  C2024 03 31.42073212 00 19.802-14 42 10.34         20.18GVEF118F51
     K24F03P  C2024 03 31.42137812 00 19.802-14 42 11.57         20.25GVEF118F51
Observer details:
807 Cerro Tololo Observatory, La Serena.  Observers T. Linder, R. Holmes.
    0.61-m f/6.8 Ritchey-Chretien + CCD.
F51 Pan-STARRS 1, Haleakala.  Observers J. Herman, T. Lowe, P. Minguez, A.
    Schultz, I. Smith.  Measurers K. Chambers, T. de Boer, J. Fairlamb, H.
    Gao, M. Huber, C.-C. Lin, E. Magnier, Y. Ramanjooloo, R. Wainscoat, R.
    Weryk.  1.8-m Ritchey-Chretien + CCD.
Orbital elements:
2024 FP3                                                 Earth MOID = 0.0033 AU
Epoch 2024 Mar. 31.0 TT = JDT 2460400.5                 MPC                     
M 324.66957              (2000.0)            P               Q                  
n   0.67990007     Peri.   37.56248     -0.36871911     +0.92939723             
a   1.2808728      Node   210.81067     -0.86038642     -0.34788848             
e   0.2612526      Incl.    1.82815     -0.35182585     -0.12326552             
P   1.45           H   26.12          G   0.15           U   9                  
Residuals in seconds of arc
240330 F51  0.1-  0.1-    240330 F51  0.1+  0.1+    240331 807  0.1-  0.4+
240330 F51  0.0   0.0     240330 F51  0.0   0.0     240331 F51  0.0   0.0
240330 F51  0.0   0.1+    240331 807  0.2+  0.3-    240331 F51  0.0   0.0
240330 F51  0.0   0.0     240331 807  0.0   0.2-
Ephemeris:
2024 FP3                 a,e,i = 1.28, 0.26, 2                   q = 0.9462
Date    TT    R. A. (2000) Decl.     Delta      r    Elong.  Phase     V
2024 03 01    11 50 08.0 -08 06 56   0.1858  1.1651   158.0    18.6    23.8
...
2024 03 16    11 53 10.2 -10 25 54   0.1124  1.1048   167.6    11.2    22.3
...
2024 03 24    11 55 05.7 -12 02 12   0.07875 1.0742   168.5    10.7    21.4
...
2024 03 30    11 58 48.3 -13 59 46   0.05523 1.0524   166.5    12.8    20.7
2024 03 31    11 59 50.9 -14 27 37   0.05143 1.0489   166.0    13.3    20.6
2024 04 01    12 01 05.2 -14 59 20   0.04766 1.0454   165.5    13.9    20.4
...
2024 04 07    12 17 35.3 -21 00 35   0.02566 1.0254   161.9    17.6    19.1
...
2024 04 15    21 20 08.2 -36 58 11   0.0081641.0012    75.4   104.1    19.5
...
2024 04 30    23 32 07.2 +04 01 54   0.05997 0.9658    45.0   132.5    25.9
A. U. Tomatic                (C) Copyright 2024 MPC           M.P.E.C. 2024-F118
    
    
More information about the Iaude
mailing list